カタログに戻る

STARLINK-32861

運用中通信VLEO
NORAD 62870·PAYLOAD·🇺🇸 United States

打ち上げ Feb 1, 2025 から Vandenberg Space Force Base

Loading…

次のパス (今後24時間)

TLE

最新Source: CelesTrak SupGP

元期: Sep 14, 2026, 22:55 UTC

1 62870C 25022S   26257.95534722  .00021531  00000+0  63635-3 0  2577
2 62870  53.1588 325.9663 0001133  93.5014 187.1905 15.34369241    19

AllMySatでSTARLINK-32861をリアルタイム追跡

Download on the App Store